sat.trackr.live / text

‹ back to catalog

STARLINK-30835

NORAD 58219 · 2023-170P

PAYLOAD ACTIVE UNKNOWN

§ Identity

Operator
Country
US
Launch date
2023-11-03
Launch site
AFETR
Launch vehicle
Mass (kg)
RCS (m²)

Purposes: comms

External: N2YO · Heavens-Above · Gunter

§ Orbital elements

Epoch: 2026-09-20T04:14:24.823680Z

Period
94.27 min
Inclination
42.9992°
Eccentricity
0.0001289
Mean motion
15.27587379 rev/d
Perigee alt
482.1 km
Apogee alt
483.9 km
Semi-major
6,861.2 km
B*
2.6951e-4
RAAN
175.8684°
Arg perigee
271.9623°
Mean anomaly
88.1081°
Rev number
16,004

§ Raw data

STARLINK-308351 58219U 23170P   26263.17667620  .00007163  00000+0  26951-3 0  99942 58219  42.9992 175.8684 0001289 271.9623  88.1081 15.27587379160042

JSON: /api/v1/satellites/58219 · /tle

For live sub-satellite position, see the globe view (requires WebGL).

§ Visibility from observer

Set your observer location to see the next 7 days of passes ≥ 10°. The values pass through the URL so the page stays shareable.

No JS? Fill the form by hand. The geolocation button needs JavaScript.